User: anonymous   Login
Location: ???? ?????
(30.0052°N, 31.2891°E)
Time: 08:58:32
(UTC+00:00)
Language:

BREEZE-M DEB (TANK) - Orbit

View from above orbital plane
View from above orbital plane
View from above satellite
View from above satellite

Ground track
Ground track

The orbit data is extracted from the following two-line orbital elements,

1 37828U 11054C   22222.88696274  .00002953  00000-0  70919-3 0  9997
2 37828  49.3399 204.9957 5564834  68.0959 340.7168  4.68627929181164
Epoch (UTC): 10 August 2022 21:17:13
Eccentricity: 0.5564834
inclination: 49.3399°
perigee height: 312 km
apogee height: 17099 km
right ascension of ascending node: 204.9957°
argument of perigee: 68.0959°
revolutions per day: 4.68627929
mean anomaly at epoch: 340.7168°
orbit number at epoch: 18116

The dashed part of the orbit path shows where the satellite is in the earth's shadow,  

DLR